Tracking 19176 objects as of 27-May-2018
HD Live streaming from Space Station
objects crossing your sky now

WESTFORD NEEDLES

Track WESTFORD NEEDLES now!
10-day predictions
WESTFORD NEEDLES is classified as:


NORAD ID: 19946
Int'l Code: 1963-014EU
Perigee: 1,754.2 km
Apogee: 5,407.4 km
Inclination: 86.3 °
Period: 164.7 minutes
Semi major axis: 9951 km
RCS: 0.1748 m2 (medium)
Launch date: May 9, 1963
Source: United States (US)
Launch site: AIR FORCE WESTERN TEST RANGE (AFWTR)
aabbcc
Your satellite tracking list
Your tracking list is empty




NASA's NSSDC Master Catalog

Two Line Element Set (TLE):
1 19946U 63014EU  18147.22069726 -.00001012  00000-0 -78676-1 0  9999
2 19946  86.3298 299.1752 1835461  98.2535  14.1313  8.74485360932969
Source of the keplerian elements: AFSPC